• In Belarus
  • List of Countries
  • For 7 days
  • Water Temperature
  • Satellite Maps
  • Weather Map
  • Weather Widgets
  • user-avatar
    Login

    Hourly Weather Durres

    Today, 13 November, Tuesday

    Time Temperature Precipitation Wind Pressure Humidity
    00:00 +15°C° 0 mm 2 mps 768 mmHg 43%
    01:00 +15°C° 0 mm 2 mps 768 mmHg 41%
    02:00 +14°C° 0 mm 2 mps 768 mmHg 41%
    03:00 +14°C° 0 mm 2 mps 768 mmHg 40%
    04:00 +14°C° 0 mm 2 mps 768 mmHg 39%
    05:00 +14°C° 0 mm 2 mps 768 mmHg 39%
    06:00 +14°C° 0 mm 2 mps 768 mmHg 40%
    07:00 +14°C° 0 mm 2 mps 768 mmHg 40%
    08:00 +16°C° 0 mm 2 mps 768 mmHg 36%
    09:00 +20°C° 0 mm 1 mps 768 mmHg 32%
    10:00 +22°C° 0 mm 1 mps 768 mmHg 27%
    11:00 +23°C° 0 mm 1 mps 768 mmHg 27%
    12:00 +24°C° 0 mm 2 mps 768 mmHg 26%
    13:00 +24°C° 0 mm 2 mps 768 mmHg 25%
    14:00 +23°C° 0 mm 2 mps 767 mmHg 32%
    15:00 +20°C° 0 mm 3 mps 767 mmHg 39%
    16:00 +19°C° 0 mm 3 mps 767 mmHg 46%
    17:00 +18°C° 0 mm 3 mps 767 mmHg 48%
    18:00 +17°C° 0 mm 3 mps 767 mmHg 49%
    19:00 +16°C° 0 mm 3 mps 767 mmHg 51%
    20:00 +16°C° 0 mm 3 mps 767 mmHg 49%
    21:00 +16°C° 0 mm 3 mps 767 mmHg 47%
    22:00 +14°C° 0 mm 3 mps 767 mmHg 45%
    23:00 +14°C° 0 mm 3 mps 767 mmHg 44%

    Tomorrow, 14 November, Wednesday

    Time Temperature Precipitation Wind Pressure Humidity
    00:00 +14°C° 0 mm 3 mps 767 mmHg 43%
    01:00 +14°C° 0 mm 3 mps 767 mmHg 42%
    02:00 +14°C° 0 mm 3 mps 767 mmHg 41%
    03:00 +13°C° 0 mm 3 mps 767 mmHg 40%
    04:00 +13°C° 0 mm 3 mps 767 mmHg 40%
    05:00 +13°C° 0 mm 3 mps 767 mmHg 40%
    06:00 +13°C° 0 mm 3 mps 767 mmHg 40%
    07:00 +13°C° 0 mm 3 mps 767 mmHg 41%
    08:00 +16°C° 0 mm 2 mps 767 mmHg 37%
    09:00 +19°C° 0 mm 2 mps 767 mmHg 33%
    10:00 +21°C° 0 mm 2 mps 767 mmHg 30%
    11:00 +23°C° 0 mm 2 mps 766 mmHg 30%
    12:00 +24°C° 0 mm 3 mps 766 mmHg 29%
    13:00 +24°C° 0 mm 3 mps 765 mmHg 29%
    14:00 +22°C° 0 mm 3 mps 765 mmHg 35%
    15:00 +21°C° 0 mm 4 mps 765 mmHg 40%
    16:00 +20°C° 0 mm 4 mps 765 mmHg 46%
    17:00 +19°C° 0 mm 4 mps 765 mmHg 48%
    18:00 +18°C° 0 mm 4 mps 765 mmHg 51%
    19:00 +15°C° 0 mm 5 mps 765 mmHg 54%
    20:00 +15°C° 0 mm 5 mps 765 mmHg 56%
    21:00 +15°C° 0 mm 5 mps 766 mmHg 58%
    22:00 +14°C° 0 mm 4 mps 766 mmHg 60%
    23:00 +14°C° 0 mm 4 mps 766 mmHg 62%

    Day after tomorrow, 15 November, Thursday

    Time Temperature Precipitation Wind Pressure Humidity
    00:00 +13°C° 0 mm 5 mps 765 mmHg 65%
    01:00 +13°C° 0 mm 5 mps 765 mmHg 67%
    02:00 +12°C° 0 mm 5 mps 765 mmHg 69%
    03:00 +12°C° 0 mm 5 mps 765 mmHg 70%
    04:00 +12°C° 0 mm 5 mps 765 mmHg 72%
    05:00 +12°C° 0 mm 5 mps 765 mmHg 71%
    06:00 +10°C° 0 mm 5 mps 765 mmHg 70%
    07:00 +10°C° 0 mm 5 mps 765 mmHg 69%
    08:00 +13°C° 0 mm 5 mps 765 mmHg 59%
    09:00 +15°C° 0 mm 5 mps 765 mmHg 49%
    10:00 +17°C° 0 mm 5 mps 765 mmHg 39%
    11:00 +19°C° 0 mm 5 mps 765 mmHg 35%
    12:00 +20°C° 0 mm 5 mps 764 mmHg 32%
    13:00 +20°C° 0 mm 5 mps 764 mmHg 29%
    14:00 +19°C° 0 mm 6 mps 764 mmHg 32%
    15:00 +17°C° 0 mm 6 mps 764 mmHg 35%
    16:00 +16°C° 0 mm 7 mps 764 mmHg 38%
    17:00 +15°C° 0 mm 7 mps 764 mmHg 40%
    18:00 +14°C° 0 mm 7 mps 765 mmHg 43%
    19:00 +11°C° 0 mm 7 mps 765 mmHg 45%
    20:00 +11°C° 0 mm 7 mps 765 mmHg 47%
    21:00 +10°C° 0 mm 7 mps 765 mmHg 49%
    22:00 +10°C° 0 mm 7 mps 766 mmHg 51%
    23:00 +9°C° 0 mm 7 mps 766 mmHg 53%

    16 November, Friday

    Time Temperature Precipitation Wind Pressure Humidity
    00:00 +9°C° 0 mm 7 mps 766 mmHg 55%
    01:00 +8°C° 0 mm 7 mps 766 mmHg 58%
    02:00 +8°C° 0 mm 6 mps 766 mmHg 59%
    03:00 +8°C° 0 mm 6 mps 766 mmHg 60%
    04:00 +7°C° 0 mm 6 mps 766 mmHg 61%
    05:00 +7°C° 0 mm 6 mps 766 mmHg 61%
    06:00 +7°C° 0 mm 6 mps 766 mmHg 61%
    07:00 +7°C° 0 mm 6 mps 766 mmHg 61%
    08:00 +9°C° 0 mm 6 mps 766 mmHg 54%
    09:00 +11°C° 0 mm 6 mps 766 mmHg 46%
    10:00 +14°C° 0 mm 6 mps 766 mmHg 38%
    11:00 +15°C° 0 mm 5 mps 766 mmHg 36%
    12:00 +16°C° 0 mm 5 mps 765 mmHg 33%
    13:00 +17°C° 0 mm 4 mps 765 mmHg 31%
    14:00 +15°C° 0 mm 4 mps 765 mmHg 34%
    15:00 +14°C° 0 mm 5 mps 765 mmHg 37%
    16:00 +13°C° 0 mm 5 mps 765 mmHg 41%
    17:00 +12°C° 0 mm 5 mps 765 mmHg 44%
    18:00 +10°C° 0 mm 6 mps 765 mmHg 46%
    19:00 +9°C° 0 mm 7 mps 766 mmHg 49%
    20:00 +9°C° 0 mm 7 mps 766 mmHg 51%
    21:00 +9°C° 0 mm 7 mps 766 mmHg 52%
    22:00 +8°C° 0 mm 7 mps 767 mmHg 54%
    23:00 +8°C° 0 mm 7 mps 767 mmHg 55%

    17 November, Saturday

    Time Temperature Precipitation Wind Pressure Humidity
    00:00 +8°C° 0 mm 7 mps 767 mmHg 56%
    01:00 +7°C° 0 mm 6 mps 766 mmHg 57%
    02:00 +7°C° 0 mm 6 mps 766 mmHg 58%
    03:00 +7°C° 0 mm 6 mps 766 mmHg 59%
    04:00 +5°C° 0 mm 6 mps 766 mmHg 60%
    05:00 +5°C° 0 mm 6 mps 766 mmHg 59%
    06:00 +5°C° 0 mm 6 mps 766 mmHg 59%
    07:00 +5°C° 0 mm 6 mps 766 mmHg 59%
    08:00 +8°C° 0 mm 7 mps 766 mmHg 53%
    09:00 +10°C° 0 mm 7 mps 766 mmHg 46%
    10:00 +12°C° 0 mm 7 mps 766 mmHg 40%
    11:00 +14°C° 0 mm 7 mps 765 mmHg 38%
    12:00 +14°C° 0 mm 6 mps 765 mmHg 36%
    13:00 +15°C° 0 mm 6 mps 764 mmHg 35%
    14:00 +14°C° 0 mm 6 mps 764 mmHg 37%
    15:00 +13°C° 0 mm 6 mps 764 mmHg 40%
    16:00 +11°C° 0 mm 6 mps 764 mmHg 42%
    17:00 +11°C° 0 mm 7 mps 764 mmHg 43%
    18:00 +10°C° 0 mm 7 mps 764 mmHg 44%
    19:00 +9°C° 0 mm 8 mps 765 mmHg 46%
    20:00 +9°C° 0 mm 8 mps 764 mmHg 46%
    21:00 +9°C° 0 mm 8 mps 764 mmHg 47%
    22:00 +9°C° 0 mm 8 mps 764 mmHg 47%
    23:00 +9°C° 0 mm 8 mps 764 mmHg 48%

    18 November, Sunday

    Time Temperature Precipitation Wind Pressure Humidity
    00:00 +7°C° 0 mm 8 mps 764 mmHg 49%
    01:00 +7°C° 0 mm 8 mps 763 mmHg 50%
    02:00 +7°C° 0.4 mm 8 mps 763 mmHg 53%
    03:00 +7°C° 0.4 mm 8 mps 762 mmHg 55%
    04:00 +7°C° 0.4 mm 8 mps 762 mmHg 58%
    05:00 +7°C° 1 mm 8 mps 762 mmHg 59%
    06:00 +7°C° 1 mm 9 mps 761 mmHg 61%
    07:00 +7°C° 1 mm 9 mps 761 mmHg 63%
    08:00 +7°C° 2.4 mm 9 mps 760 mmHg 64%
    09:00 +7°C° 2.4 mm 9 mps 760 mmHg 66%
    10:00 +7°C° 2.4 mm 9 mps 760 mmHg 67%
    11:00 +8°C° 2.3 mm 9 mps 759 mmHg 67%
    12:00 +8°C° 2.3 mm 9 mps 759 mmHg 68%
    13:00 +8°C° 2.3 mm 9 mps 758 mmHg 68%
    14:00 +8°C° 1.2 mm 9 mps 758 mmHg 68%
    15:00 +8°C° 1.2 mm 9 mps 757 mmHg 68%
    16:00 +8°C° 1.2 mm 9 mps 757 mmHg 68%
    17:00 +8°C° 0.4 mm 9 mps 756 mmHg 69%
    18:00 +9°C° 0.4 mm 8 mps 756 mmHg 69%
    19:00 +9°C° 0.4 mm 8 mps 756 mmHg 69%
    20:00 +9°C° 0.6 mm 7 mps 755 mmHg 69%
    21:00 +9°C° 0.6 mm 6 mps 755 mmHg 69%
    22:00 +9°C° 0.6 mm 6 mps 755 mmHg 69%
    23:00 +9°C° 1.6 mm 6 mps 754 mmHg 73%
    Show more